OV2-3

Satellite information

Favourite Embed

Satellite Type and Status

PAYLOADIN ORBIT

Key statistics

Satellite OV2-3 at a glance.

Uptime

21908

Days in orbit

Revolutions

≈ 5.3

Per day

Orbit

MEO

Medium Earth Orbit

Inclination

26.6

Latest

Satellite identification and parameters

Extended collection of information and parameters for OV2-3.

Object identification

Identified? True

Debris? False

Object name: OV2-3

International designator: 1965-108V

Object number (NORAD): 13912

Object ID (CCSDS): 13912

Country: UNITED STATES OF AMERICA (US)

Current information (Y/N): Y

RCS size: LARGE

Orbital parameters

Period: 274.197 minutes

Inclination: 26.586 deg

SMA: 13980.893 km

Apoapsis: 14955.274 km

Periapsis: 250.242 km

RAAN: 270.8056 deg

Eccentricy: 0.52589745

Argument of periapsis: 195.4357 deg

Mean anomaly: 138.9503 deg

Mean motion: 5.25170584 rev/day

Mean motion (dot): 0.00021811 rev/day2

B* drag term: 0.0015688492 1/REarth

Two-line elements (TLE)

Creation date: Dec. 13, 2025, 5:47 p.m.

Reference frame: TEME

Reference center: EARTH

Epoch: Dec. 12, 2025, 11:35 p.m. UTC

TLE line 0: 0 OV2-3

TLE line 1: 1 13912U 65108V 25346.98327582 .00021811 00000-0 15688-2 0 9993

TLE line 2: 2 13912 26.5860 270.8056 5258975 195.4357 138.9503 5.25170584560858

Live tracking on map

Real-time ground track for satellite OV2-3.

In-orbit conjunctions

A list of the most updated potential collisions computed for object OV2-3.

Target Orbit TCA Probability of collision Miss distance Type
ARIANE 42L R/B MEO 2025-05-22 06:35:35 TBA 4834.0 (m) ROCKET BODY

Associated space launch

The OV2 (Orbiting Vehicle 2) series satellites were originally built for project ARENTS (Advanced Research Environmental Test Satellite), which was intended to obtain supporting data for the Vela program. After the cancellation of the ARENTS program, the already built hardware was reused for OV2, a low-cost series of experimental satellites, which were to be launched for free on Titan-3C test flights to very different orbits.

OV2-3 was lifted into orbit during the mission ‘Titan IIIC | OV2-3’, on board a Titan IIIC space rocket.

The launch took place on Dec. 21, 1965, 2 p.m. from Space Launch Complex 41.

For more information about the launch, click the button.

Launch to space Titan IIIC | OV2-3
Titan IIIC | OV2-3

Agency: N/A

Status: Launch Successful

Launch date: Dec. 21, 1965, 2 p.m. UTC

Rocket: Titan IIIC

Launch pad: Space Launch Complex 41

Location: Cape Canaveral SFS, FL, USA

...

Latest news about this satellite

There are no fresh news available about this satellite. Check back as we update our databases every day.


Newsletter sign-up

Weekly statistics, charts and insights to help you stay on top of the space industry.